Location: Barruelo
(41.2448°N, 3.8231°W)
Time: 08:49:00
(UTC+00:00)

Cosmos 2227 Rocket - Pass Details

Date: 23 March 2026
Orbit: 836 x 845 km, 71.0° (Epoch: 18 April)

Event Time Altitude Azimuth Distance (km) Brightness Sun altitude
Rises 21:28:29 0° 333° (NNW) 3,413 6.2 -32.1°
Reaches altitude 10° 21:30:57 10° 330° (NNW) 2,474 5.3 -32.5°
Enters shadow 21:35:20 51° 303° (WNW) 1,061 2.9 -33.2°
